Retour au catalogue

STARLINK-34526

ActifCommunicationsVLEO
NORAD 64481·PAYLOAD·🇺🇸 United States

Lancé Jun 23, 2025 depuis Cape Canaveral Space Force Station

Loading…

Prochains Passages (prochaines 24 heures)

TLE

FraisSource: CelesTrak SupGP

Époque: Sep 15, 2026, 03:32 UTC

1 64481C 25133K   26258.14770833  .00039804  00000+0  11759-2 0  2589
2 64481  53.1588 314.8743 0001249  90.2609 220.6747 15.34374684    11

Suivez STARLINK-34526 en temps réel avec AllMySat

Download on the App Store